Regional Weather Roundup
Issued by NWS

Home | Current Version | Previous Version | Graphics & Text | Print | Product List | Glossary On
Versions: 1 2 3 4 5 6 7 8 9 10 11 12 13 14 15 16 17 18 19 20 21 22 23 24 25 26 27 28 29 30 31 32 33 34 35 36 37 38 39 40 41 42 43 44 45 46 47 48 49 50
000
ASUS44 KMEG 030500
RWRTN
TENNESSEE HOURLY STATE WEATHER ROUNDUP
NATIONAL WEATHER SERVICE MEMPHIS TN
1100 PM CST MON MAR 02 2015

TNZ002-004-019-021-049-052-054-088>092-030600-
WEST TENNESSEE

CITY           SKY/WX    TMP DP  RH WIND       PRES   REMARKS
MEMPHIS INTL   DRIZZLE   43  38  82 CALM      30.22F
NWS MEMPHIS      N/A     41 N/A N/A MISG        N/A
JACKSON        CLOUDY    46  35  65 CALM      30.22F
DYERSBURG      CLOUDY    39  19  45 CALM      30.25F
UNION CITY     CLOUDY    37  30  75 CALM      30.23S
PARIS          CLOUDY    37  27  65 CALM      30.23S
LEXINGTON      CLOUDY    45  32  61 SE3       30.20F
SAVANNAH       CLOUDY    45  39  81 CALM      30.21F
$$

TNZ008-025-027-028-033-062-065-066-030600-
NORTH MIDDLE TENNESSEE

CITY           SKY/WX    TMP DP  RH WIND       PRES   REMARKS
NASHVILLE      FAIR      44  32  62 E5        30.23F
CLARKSVILLE    CLOUDY    40  26  57 E9        30.23F WCI  34
COOKEVILLE       N/A     41  34  75 CALM      30.22F
CROSSVILLE     CLOUDY    42  28  57 E5        30.23F
$$

TNZ061-075-076-078-094-096-097-030600-
SOUTH MIDDLE TENNESSEE

CITY           SKY/WX    TMP DP  RH WIND       PRES   REMARKS
FAYETTEVILLE   CLOUDY    41  36  81 E3          N/A
TULLAHOMA      CLOUDY    43  36  75 CALM      30.21F
WINCHESTER     MOCLDY    43  39  87 CALM      30.22F
COLUMBIA         N/A     45  39  81 CALM      30.20F
SHELBYVILLE    CLEAR     43  37  81 CALM      30.22F
$$

TNZ017-018-042-046-047-030600-
NORTHEAST TENNESSEE

CITY           SKY/WX    TMP DP  RH WIND       PRES   REMARKS
TRI CITIES     CLOUDY    35  28  75 CALM      30.27F
ELIZABETHTON   CLEAR     34  28  80 CALM      30.26F
$$

TNZ012-013-036-069-073-074-030600-
CENTRAL EAST TENNESSEE

CITY           SKY/WX    TMP DP  RH WIND       PRES   REMARKS
KNOXVILLE      CLOUDY    41  37  86 N6        30.27F
OAK RIDGE      CLOUDY    41  32  70 CALM      30.28F
GATLINBURG     CLOUDY    37  36  93 CALM      30.27S
$$

TNZ083-085-099-030600-
SOUTHEAST TENNESSEE

CITY           SKY/WX    TMP DP  RH WIND       PRES   REMARKS
CHATTANOOGA    LGT RAIN  47  38  71 NE7       30.27F
$$

SKY/WX REPORTED AS FAIR MEANS FEW OR NO CLOUDS BELOW
12 THOUSAND FEET.



USA.gov is the U.S. government's official web portal to all federal, state and local government web resources and services.